DateTimeUTC,F1_A11,F1_S11,BsB_S11,BsG_S11,BsR_S11,BbsB_S11,BbsG_S11,BbsR_S11,BaB_A11,BaG_A11,BaR_A11,T_S11,U_S11,P_S11,T1_A11
2020-10-14T00:00:00Z,00000380,20000600,,,,,,,,,,24.2,05.4,0670.7,31.0
2020-10-14T00:01:00Z,00000380,20000600,,,,,,,,,,24.2,05.4,0670.7,31.0
2020-10-14T00:02:00Z,00000380,20000600,,,,,,,,,,24.2,05.4,0670.7,31.0
2020-10-14T00:03:00Z,00000380,60000600,,,,,,,,,,24.2,05.4,0670.7,31.0
2020-10-14T00:04:00Z,00000380,40000600,-000.00,-000.31,0000.16,0000.45,-000.09,-000.23,0000.09,0000.03,-000.04,24.0,05.5,0671.6,31.0
2020-10-14T00:05:00Z,00000380,00000600,0000.06,0000.28,0000.04,-000.06,-000.02,-000.16,-000.02,0000.04,0000.06,24.0,05.5,0671.6,31.0
2020-10-14T00:06:00Z,00000380,00000600,0000.12,0000.01,0000.08,-000.22,0000.00,0000.44,-000.02,0000.02,-000.07,24.0,05.6,0671.6,31.0
2020-10-14T00:07:00Z,00000380,00000600,-001.06,-000.27,0000.15,-000.18,0000.14,-000.41,0000.08,0000.14,0000.05,24.0,05.6,0671.6,31.0
2020-10-14T00:08:00Z,00000380,00000600,0001.07,-000.06,0000.27,0000.46,-000.02,-000.06,-000.03,0000.03,0000.03,24.0,05.7,0671.6,31.0
2020-10-14T00:09:00Z,00000380,00000600,-000.48,0000.07,0000.35,0000.48,-000.12,0000.10,-000.00,-000.14,0000.06,24.0,05.7,0671.6,31.0
2020-10-14T00:10:00Z,00000380,00000600,-000.68,0000.54,0000.18,-000.06,0000.08,0000.17,0000.05,0000.07,-000.03,24.0,05.7,0671.6,31.0
2020-10-14T00:11:00Z,00000380,00000600,0000.82,0000.04,0000.43,-000.05,0000.27,0000.35,-000.14,-000.01,-000.07,24.0,05.6,0671.6,31.0
2020-10-14T00:12:00Z,00000380,00000600,0000.64,0000.14,-000.22,-000.59,-000.31,-000.02,0000.12,0000.07,0000.07,24.0,05.6,0671.6,31.0
2020-10-14T00:13:00Z,00000380,00000600,0000.31,0000.55,0000.21,0000.40,0000.10,-000.20,0000.03,-000.06,0000.03,23.9,05.7,0671.6,31.0
2020-10-14T00:14:00Z,00000380,00000600,0000.10,0000.21,0000.58,-000.23,0000.50,0000.18,0000.05,0000.09,-000.01,23.9,05.7,0671.6,31.0
2020-10-14T00:15:00Z,00000380,00000600,0000.52,-000.14,0000.73,-000.47,0000.02,-000.20,-000.07,0000.00,0000.07,23.9,05.6,0671.6,31.0
2020-10-14T00:16:00Z,00000380,00000600,0001.27,0000.14,-000.23,0000.20,0000.21,-000.09,0000.02,-000.13,-000.01,23.9,05.6,0671.6,31.0
2020-10-14T00:17:00Z,00000380,00000600,0000.50,0000.25,0000.60,-000.15,0000.14,0000.51,-000.09,0000.07,-000.10,23.9,05.7,0671.6,31.0
2020-10-14T00:18:00Z,00000380,00000600,-000.71,-000.65,-000.03,-000.82,0000.11,0000.04,0000.04,0000.01,-000.12,23.9,05.7,0671.6,31.0
2020-10-14T00:19:00Z,00000380,00000600,0000.65,0000.26,0000.10,0000.13,0000.35,-000.29,0000.05,0000.00,0000.24,23.9,05.7,0671.6,31.0
2020-10-14T00:20:00Z,00000380,00000600,-000.28,-000.21,0000.30,-000.24,0000.21,0000.08,0000.06,0000.15,-000.17,23.9,05.7,0671.6,31.0
2020-10-14T00:21:00Z,00000380,00000600,0000.26,0000.01,0000.02,-000.53,0000.05,-000.03,0000.00,-000.17,0000.08,23.9,05.7,0671.7,31.0
2020-10-14T00:22:00Z,00000380,00000600,-000.06,0000.08,-000.23,-000.72,0000.40,-000.00,-000.03,0000.12,0000.13,23.9,05.7,0671.7,31.0
2020-10-14T00:23:00Z,00000380,00000600,0000.18,-000.45,0000.03,-000.02,0000.08,0000.37,-000.07,-000.00,-000.18,23.9,05.8,0671.6,31.0
2020-10-14T00:24:00Z,00000380,00000600,0001.38,0000.17,0000.35,0000.34,0000.35,-000.16,0000.05,0000.06,0000.11,23.9,05.7,0671.6,31.0
2020-10-14T00:25:00Z,00000380,00000600,0000.39,-000.01,0000.01,0000.10,-000.04,0000.04,0000.09,-000.11,-000.01,23.9,05.7,0671.7,31.0
2020-10-14T00:26:00Z,00000380,00000600,0000.72,0000.39,0000.21,-001.02,0000.02,0000.11,0000.02,0000.06,0000.02,23.9,05.7,0671.6,31.0
2020-10-14T00:27:00Z,00000380,00000600,0000.18,-000.08,0000.48,0000.30,0000.18,0000.25,-000.13,0000.07,0000.17,23.9,05.7,0671.6,31.0
2020-10-14T00:28:00Z,00000380,00000600,-000.05,0000.31,-000.34,0000.71,0000.29,0000.04,0000.13,-000.05,-000.04,23.9,05.7,0671.7,31.0
2020-10-14T00:29:00Z,00000380,00000600,0000.86,-000.06,0000.26,0000.08,-000.17,-000.03,-000.02,-000.02,-000.06,23.9,05.7,0671.7,31.0
2020-10-14T00:30:00Z,00000380,00000600,-000.07,-000.72,-000.06,-000.58,-000.03,0000.01,-000.03,0000.03,0000.00,23.9,05.7,0671.6,31.0
2020-10-14T00:31:00Z,00000380,00000600,0000.70,0000.32,0000.32,0000.71,0000.14,0000.07,0000.06,0000.00,-000.14,23.9,05.7,0671.6,31.0
2020-10-14T00:32:00Z,00000380,00000600,0000.82,0000.39,-000.17,0000.40,-000.43,0000.42,0000.02,0000.12,0000.13,23.9,05.6,0671.6,31.0
2020-10-14T00:33:00Z,00000380,00000600,0000.31,-000.04,-000.18,-000.57,0000.43,0000.22,-000.10,-000.17,-000.05,23.9,05.7,0671.6,31.0
2020-10-14T00:34:00Z,00000380,00000600,0000.32,-000.03,-000.00,-000.44,0000.36,0000.02,0000.16,0000.04,0000.13,23.9,05.7,0671.6,31.0
2020-10-14T00:35:00Z,00000380,00000600,-000.53,-000.29,0000.34,0000.13,0000.20,-000.34,-000.05,0000.05,0000.05,23.9,05.7,0671.7,31.0
2020-10-14T00:36:00Z,00000380,00000600,0000.44,-000.10,-000.07,-000.27,0000.28,0000.08,-000.06,0000.04,-000.04,23.9,05.7,0671.6,31.0
2020-10-14T00:37:00Z,00000380,00000600,0000.07,0000.23,0000.54,-000.08,0000.13,0000.18,0000.11,-000.10,-000.05,23.9,05.7,0671.7,31.0
2020-10-14T00:38:00Z,00000380,00000600,0000.17,0000.22,0000.08,-000.25,0000.04,0000.17,-000.06,0000.09,-000.05,23.9,05.6,0671.7,31.0
2020-10-14T00:39:00Z,00000380,00000600,0000.75,-000.05,0000.08,-000.06,-000.09,0000.10,-000.09,-000.03,0000.06,23.9,05.6,0671.6,31.0
2020-10-14T00:40:00Z,00000380,00000600,0000.83,0000.44,0000.29,-000.10,-000.21,0000.06,0000.05,0000.16,0000.06,23.9,05.6,0671.6,31.0
2020-10-14T00:41:00Z,00000380,00000600,0000.48,-000.03,0000.27,-000.28,0000.06,-000.47,0000.09,-000.13,-000.06,23.9,05.6,0671.6,31.0
2020-10-14T00:42:00Z,00000380,00000600,0000.20,-000.10,0000.03,-000.10,0000.54,0000.51,-000.13,-000.00,0000.06,23.9,05.6,0671.6,31.0
2020-10-14T00:43:00Z,00000380,00000600,-000.11,0000.01,0000.46,-000.80,0000.03,0000.18,-000.05,-000.10,-000.12,23.9,05.6,0671.6,31.0
2020-10-14T00:44:00Z,00000380,00000600,0000.38,0000.22,0000.18,0000.14,-000.01,0000.21,0000.08,0000.07,0000.03,23.9,05.6,0671.6,31.0
2020-10-14T00:45:00Z,00000380,00000600,-000.00,-000.29,0000.22,0000.07,0000.19,0000.49,-000.06,0000.01,-000.00,23.9,05.6,0671.6,31.0
2020-10-14T00:46:00Z,00000380,00000600,0000.01,0000.05,-000.16,0000.08,0000.22,0000.26,0000.21,-000.09,0000.14,23.9,05.6,0671.6,31.0
2020-10-14T00:47:00Z,00000380,00000600,-000.09,0000.00,-000.27,0000.77,-000.15,0000.11,-000.07,-000.02,-000.10,23.9,05.6,0671.6,31.0
2020-10-14T00:48:00Z,00000380,00000600,0000.15,0000.49,0000.13,0000.08,0000.25,0000.28,0000.03,0000.18,0000.05,23.9,05.6,0671.6,31.0
2020-10-14T00:49:00Z,00000380,00000600,0000.04,-000.55,0000.12,-000.01,-000.17,0000.27,-000.01,0000.08,0000.07,23.9,05.6,0671.6,31.0
2020-10-14T00:50:00Z,00000380,00000600,-000.29,0000.63,0000.17,0000.26,0000.32,0000.03,0000.12,-000.11,0000.03,24.0,05.6,0671.6,31.0
2020-10-14T00:51:00Z,00000380,00000600,-000.84,-000.39,0000.23,-000.23,0000.20,-000.03,-000.04,0000.06,-000.11,24.0,05.6,0671.6,31.0
2020-10-14T00:52:00Z,00000380,00000600,0000.65,0000.74,-000.10,-000.66,-000.04,-000.27,-000.04,-000.01,0000.15,24.0,05.5,0671.6,31.0
2020-10-14T00:53:00Z,00000380,00000600,0000.32,0000.00,0000.80,0000.45,0000.20,0000.24,0000.01,0000.01,-000.16,24.0,05.5,0671.5,31.0
2020-10-14T00:54:00Z,00000380,00000600,0000.31,0000.06,0000.58,0000.94,0000.04,0000.41,-000.03,-000.12,0000.15,24.0,05.5,0671.6,31.0
2020-10-14T00:55:00Z,00000380,00000600,0000.92,0000.68,-000.43,-000.36,0000.30,-000.10,0000.03,0000.13,-000.05,24.0,05.4,0671.5,31.0
2020-10-14T00:56:00Z,00000380,00000600,0000.63,-000.01,0000.17,0000.07,0000.04,0000.29,0000.03,-000.06,-000.00,24.0,05.4,0671.5,31.0
2020-10-14T00:57:00Z,00000380,40000600,,,,,,,,,,24.0,05.2,0671.5,31.0
2020-10-14T00:58:00Z,00000380,60000600,,,,,,,,,,24.1,05.4,0670.6,31.0
2020-10-14T00:59:00Z,00000380,20000600,,,,,,,,,,24.2,05.4,0670.6,31.0
2020-10-14T01:00:00Z,00000380,20000600,,,,,,,,,,24.2,05.2,0670.6,31.0
2020-10-14T01:01:00Z,00000380,20000600,,,,,,,,,,24.2,05.2,0670.6,31.0
2020-10-14T01:02:00Z,00000380,20000600,,,,,,,,,,24.2,05.2,0670.6,31.0
2020-10-14T01:03:00Z,00000380,60000600,,,,,,,,,,24.2,05.2,0670.6,31.0
2020-10-14T01:04:00Z,00000380,40000600,-000.71,0000.22,0000.55,-000.13,-000.32,0000.23,0000.02,-000.03,0000.09,24.1,05.1,0671.5,31.0
2020-10-14T01:05:00Z,00000380,00000600,0000.69,0000.11,0000.23,-000.67,-000.30,0000.14,0000.02,0000.03,-000.08,24.0,05.1,0671.6,31.0
2020-10-14T01:06:00Z,00000380,00000600,0000.08,-000.06,0000.49,0000.09,-000.05,0000.21,0000.03,0000.01,-000.04,24.0,05.0,0671.6,31.0
2020-10-14T01:07:00Z,00000380,00000600,0000.51,-000.34,-000.14,-000.26,-000.16,-000.26,-000.09,-000.10,-000.07,24.0,05.0,0671.6,31.0
2020-10-14T01:08:00Z,00000380,00000600,-000.61,-000.21,0000.17,-000.77,0000.35,-000.02,-000.01,0000.10,-000.07,24.0,05.0,0671.6,31.0
2020-10-14T01:09:00Z,00000380,00000600,0000.93,0000.05,-000.03,0000.04,0000.26,-000.17,-000.09,-000.04,0000.10,24.0,04.9,0671.6,31.0
2020-10-14T01:10:00Z,00000380,00000600,0000.85,0000.24,0000.40,0000.28,0000.02,-000.01,-000.07,-000.06,0000.04,24.0,04.8,0671.6,31.0
2020-10-14T01:11:00Z,00000380,00000600,-000.30,0000.11,0000.31,-000.67,-000.28,0000.06,0000.17,-000.02,-000.04,24.0,04.9,0671.6,31.0
2020-10-14T01:12:00Z,00000380,00000600,0000.75,-000.36,-000.58,0000.16,-000.38,-000.39,-000.00,0000.21,0000.04,24.0,04.8,0671.6,31.0
2020-10-14T01:13:00Z,00000380,00000600,-000.59,-000.33,0000.43,0000.02,-000.12,-000.07,0000.01,-000.05,-000.03,24.0,04.9,0671.6,31.0
2020-10-14T01:14:00Z,00000380,00000600,0001.00,0000.20,0000.22,-000.92,-000.14,0000.08,-000.13,-000.10,-000.01,24.0,04.8,0671.6,31.0
2020-10-14T01:15:00Z,00000380,00000600,0000.14,-000.10,-000.13,0000.80,-000.04,0000.07,0000.01,-000.01,-000.03,24.0,04.8,0671.6,31.0
2020-10-14T01:16:00Z,00000380,00000600,0000.68,0000.52,0000.12,-000.22,-000.12,-000.34,-000.02,0000.03,0000.09,24.0,04.8,0671.6,31.0
2020-10-14T01:17:00Z,00000380,00000600,0000.33,0000.10,0000.43,0000.05,-000.11,0000.02,0000.09,-000.05,-000.01,24.0,04.7,0671.5,31.0
2020-10-14T01:18:00Z,00000380,00000600,0000.41,-000.05,-000.03,-000.39,-000.13,0000.10,-000.11,0000.03,-000.08,24.0,04.7,0671.5,31.0
2020-10-14T01:19:00Z,00000380,00000600,0000.93,-000.23,0000.09,-000.10,-000.04,-000.06,0000.06,0000.02,0000.04,24.0,04.7,0671.6,31.0
2020-10-14T01:20:00Z,00000380,00000600,-000.13,0000.06,0000.54,-000.15,-000.20,-000.06,-000.05,-000.02,0000.03,24.0,04.7,0671.6,31.0
2020-10-14T01:21:00Z,00000380,00000600,-000.11,0000.19,0000.84,-000.17,0000.00,-000.16,0000.01,0000.08,-000.13,24.0,04.7,0671.6,31.0
2020-10-14T01:22:00Z,00000380,00000600,0000.15,0000.01,-000.03,-000.61,-000.38,0000.04,0000.14,-000.04,0000.07,24.0,04.7,0671.6,31.0
2020-10-14T01:23:00Z,00000380,00000600,0000.96,0000.22,0000.32,-000.17,-000.02,0000.10,0000.07,-000.05,-000.01,24.0,04.6,0671.6,31.0
2020-10-14T01:24:00Z,00000380,00000600,0000.26,-000.08,0000.88,-001.01,-000.14,-000.07,-000.16,-000.11,0000.05,24.0,04.7,0671.6,31.0
2020-10-14T01:25:00Z,00000380,00000600,-000.06,0000.37,0000.47,-000.15,-000.30,0000.74,-000.13,0000.20,0000.02,24.0,04.6,0671.6,31.0
2020-10-14T01:26:00Z,00000380,00000600,0000.55,-000.42,0000.32,-000.29,-000.21,0000.29,0000.08,-000.22,-000.05,24.0,04.6,0671.6,31.0
2020-10-14T01:27:00Z,00000380,00000600,0000.27,0000.30,0000.39,-000.89,0000.24,-000.08,0000.08,0000.18,0000.08,24.0,04.6,0671.6,31.0
2020-10-14T01:28:00Z,00000380,00000600,0000.44,-000.09,0000.59,-000.52,0000.06,-000.00,-000.01,-000.14,-000.00,23.9,04.5,0671.6,31.0
2020-10-14T01:29:00Z,00000380,00000600,0000.39,0000.13,-000.09,-000.45,-000.23,-000.24,-000.06,0000.06,-000.17,23.9,04.5,0671.6,31.0
2020-10-14T01:30:00Z,00000380,00000600,0000.44,-000.05,0000.15,-000.19,0000.02,0000.37,0000.10,0000.08,0000.02,23.9,04.5,0671.6,31.0
2020-10-14T01:31:00Z,00000380,00000600,-000.20,0000.18,0000.79,-000.41,0000.36,0000.05,-000.03,-000.11,0000.12,24.0,04.5,0671.6,31.0
2020-10-14T01:32:00Z,00000380,00000600,-000.19,0000.06,0000.39,0000.32,0000.02,0000.08,-000.18,0000.02,0000.03,23.9,04.5,0671.5,31.0
2020-10-14T01:33:00Z,00000380,00000600,0000.17,-000.91,0000.34,-000.02,-000.16,0000.07,0000.10,0000.02,-000.10,23.9,04.5,0671.5,31.0
2020-10-14T01:34:00Z,00000380,00000600,0000.28,-000.34,0000.17,0000.56,-000.12,-000.04,-000.03,-000.04,0000.01,23.9,04.5,0671.5,31.0
2020-10-14T01:35:00Z,00000380,00000600,0000.61,-000.59,0000.37,0000.20,-000.21,0000.05,0000.18,0000.01,-000.03,23.9,04.5,0671.5,31.0
2020-10-14T01:36:00Z,00000380,00000600,0001.76,-000.31,0000.41,-000.55,-000.48,-000.22,-000.11,0000.12,0000.14,23.9,04.5,0671.5,31.0
2020-10-14T01:37:00Z,00000380,00000600,-000.19,0000.14,0000.56,0000.20,-000.45,0000.16,0000.00,0000.01,-000.14,23.9,04.5,0671.5,31.0
2020-10-14T01:38:00Z,00000380,00000600,-000.28,-000.33,0000.60,-000.79,-000.51,0000.24,0000.02,-000.05,0000.04,23.9,04.5,0671.5,31.0
2020-10-14T01:39:00Z,00000380,00000600,0000.13,-000.25,0000.26,-000.88,-000.12,0000.11,-000.01,0000.09,-000.06,23.9,04.6,0671.5,31.0
2020-10-14T01:40:00Z,00000380,00000600,-000.53,0000.07,0000.62,-000.37,0000.32,-000.38,-000.04,-000.06,0000.11,23.9,04.5,0671.5,31.0
2020-10-14T01:41:00Z,00000380,00000600,0001.17,-000.26,0000.03,-000.08,0000.18,0000.14,0000.02,0000.01,-000.07,23.9,04.6,0671.5,31.0
2020-10-14T01:42:00Z,00000380,00000600,-000.60,-000.04,0000.38,0000.49,0000.18,0000.37,-000.00,0000.00,0000.11,23.9,04.6,0671.5,31.0
2020-10-14T01:43:00Z,00000380,00000600,0001.43,-000.18,0000.16,-000.37,-000.18,-000.05,0000.08,0000.08,-000.05,23.9,04.6,0671.5,31.0
2020-10-14T01:44:00Z,00000380,00000600,0000.19,-000.04,0000.24,0000.12,-000.06,0000.11,-000.05,0000.00,-000.05,23.9,04.6,0671.5,31.0
2020-10-14T01:45:00Z,00000380,00000600,0000.19,-000.26,0000.48,-000.38,-000.33,0000.26,0000.07,-000.15,0000.05,23.9,04.6,0671.5,31.0
2020-10-14T01:46:00Z,00000380,00000600,-000.13,0000.28,0000.05,-000.47,-000.36,0000.23,-000.13,-000.12,-000.06,23.9,04.6,0671.5,31.0
2020-10-14T01:47:00Z,00000380,00000600,-000.62,-000.14,0000.18,-001.08,-000.37,-000.15,0000.05,0000.12,-000.03,23.9,04.6,0671.6,31.0
2020-10-14T01:48:00Z,00000380,00000600,0000.40,0000.24,0000.05,0000.21,-000.10,0000.44,0000.06,0000.11,0000.14,23.9,04.6,0671.6,31.0
2020-10-14T01:49:00Z,00000380,00000600,0000.30,-000.52,0000.13,-000.30,-000.09,0000.15,0000.08,0000.05,0000.07,24.0,04.5,0671.6,31.0
2020-10-14T01:50:00Z,00000380,00000600,0000.51,-000.10,-000.00,0001.12,0000.25,-000.20,-000.09,-000.05,-000.05,24.0,04.5,0671.6,31.0
2020-10-14T01:51:00Z,00000380,00000600,-000.25,-000.19,0000.49,-000.60,-000.21,-000.08,-000.12,0000.04,-000.11,24.0,04.6,0671.6,31.0
2020-10-14T01:52:00Z,00000380,00000600,-000.16,-000.03,0000.37,0001.17,-000.12,0000.05,0000.23,0000.05,0000.07,24.0,04.4,0671.6,31.0
2020-10-14T01:53:00Z,00000380,00000600,0000.22,0000.13,0000.34,0000.21,-000.17,0000.27,-000.05,0000.02,-000.11,24.0,04.4,0671.6,31.0
2020-10-14T01:54:00Z,00000380,00000600,0000.62,0000.23,-000.38,-000.16,-000.34,-000.26,0000.01,0000.05,0000.18,24.0,04.4,0671.6,31.0
2020-10-14T01:55:00Z,00000380,00000600,-000.02,0000.01,-000.05,0000.34,0000.20,-000.08,-000.02,-000.17,-000.07,24.0,04.4,0671.6,31.0
2020-10-14T01:56:00Z,00000380,00000600,0000.69,0000.18,0000.24,-000.49,0000.11,0000.14,-000.12,-000.05,-000.03,24.0,04.4,0671.6,31.0
2020-10-14T01:57:00Z,00000380,40000600,,,,,,,,,,24.0,04.4,0671.7,31.0
2020-10-14T01:58:00Z,00000380,60000600,,,,,,,,,,24.1,04.3,0670.7,31.0
2020-10-14T01:59:00Z,00000380,20000600,,,,,,,,,,24.2,04.3,0670.7,31.0
2020-10-14T02:00:00Z,00000380,20000600,,,,,,,,,,24.2,04.2,0670.7,31.0
2020-10-14T02:01:00Z,00000380,20000600,,,,,,,,,,24.2,04.1,0670.7,31.0
2020-10-14T02:02:00Z,00000380,20000600,,,,,,,,,,24.2,04.1,0670.7,31.0
2020-10-14T02:03:00Z,00000380,60000600,,,,,,,,,,24.2,04.1,0670.7,31.0
2020-10-14T02:04:00Z,00000380,40000600,0000.53,0000.36,0000.40,-000.15,0000.09,-000.10,-000.00,-000.02,-000.05,24.0,04.0,0671.6,31.0
2020-10-14T02:05:00Z,00000380,00000600,-000.00,0000.21,0000.41,-000.08,0000.53,-000.38,-000.02,-000.09,-000.06,24.0,03.9,0671.7,31.0
2020-10-14T02:06:00Z,00000380,00000600,-000.18,0000.14,-000.02,0000.76,-000.12,-000.14,-000.02,-000.00,0000.11,24.0,03.9,0671.6,31.0
2020-10-14T02:07:00Z,00000380,00000600,0000.20,-000.33,0000.27,0000.80,0000.06,0000.34,-000.03,0000.02,-000.10,24.0,03.9,0671.6,31.0
2020-10-14T02:08:00Z,00000380,00000600,-000.32,-000.03,0000.09,0000.01,-000.28,-000.10,0000.01,0000.04,0000.12,24.0,03.9,0671.6,31.0
2020-10-14T02:09:00Z,00000380,00000600,-000.43,0000.01,-000.35,0000.35,-000.25,-000.36,0000.04,0000.00,-000.03,24.0,03.9,0671.6,31.0
2020-10-14T02:10:00Z,00000380,00000600,-000.93,-000.24,0000.16,0000.91,-000.09,-000.12,0000.09,-000.18,-000.07,24.0,03.9,0671.5,31.0
2020-10-14T02:11:00Z,00000380,00000600,0000.46,0000.01,0000.46,0001.03,-000.42,0000.25,-000.10,0000.13,-000.01,24.0,03.9,0671.5,31.0
2020-10-14T02:12:00Z,00000380,00000600,-001.22,0000.57,0000.41,0000.87,0000.06,-000.23,0000.07,-000.01,0000.08,23.9,03.7,0671.5,31.0
2020-10-14T02:13:00Z,00000380,00000600,0000.44,-000.05,-000.07,0000.43,-000.03,-000.03,0000.06,0000.09,0000.10,23.9,03.8,0671.5,31.0
2020-10-14T02:14:00Z,00000380,00000600,-000.14,0000.85,0000.46,0000.57,-000.12,-000.28,-000.06,-000.08,-000.24,23.9,03.8,0671.6,31.0
2020-10-14T02:15:00Z,00000380,00000600,0000.13,0000.39,0000.35,0001.13,0000.16,-000.45,-000.02,0000.06,0000.05,23.9,03.8,0671.6,31.0
2020-10-14T02:16:00Z,00000380,00000600,0000.86,-000.02,-000.35,0000.84,0000.35,0000.00,0000.04,-000.14,0000.09,23.9,03.8,0671.5,31.0
2020-10-14T02:17:00Z,00000380,00000600,0000.29,-000.51,0000.61,0000.74,-000.33,-000.21,-000.00,0000.11,-000.11,23.9,03.8,0671.6,31.0
2020-10-14T02:18:00Z,00000380,00000600,-000.19,0000.10,0000.03,0000.54,-000.09,0000.01,0000.05,0000.10,0000.10,23.9,03.9,0671.6,31.0
2020-10-14T02:19:00Z,00000380,00000600,0000.51,0000.40,0000.16,0000.39,0000.12,0000.46,-000.02,-000.02,-000.09,24.0,03.9,0671.6,31.0
2020-10-14T02:20:00Z,00000380,00000600,0000.44,0000.08,0000.15,0000.83,0000.28,-000.13,-000.02,-000.11,0000.10,24.0,04.0,0671.6,31.0
2020-10-14T02:21:00Z,00000380,00000600,0000.18,-000.34,-000.26,0001.44,-000.19,0000.10,0000.08,0000.28,0000.05,24.0,04.0,0671.6,31.0
2020-10-14T02:22:00Z,00000380,00000600,-000.34,0000.53,0000.13,0000.33,-000.07,-000.23,0000.16,-000.04,-000.03,24.0,04.0,0671.6,31.1
2020-10-14T02:23:00Z,00000380,00000600,0000.58,0000.15,0000.32,0000.34,-000.08,0000.32,0000.08,0000.09,0000.04,24.0,04.0,0671.6,31.0
2020-10-14T02:24:00Z,00000380,00000600,0000.39,0000.18,0000.30,0000.14,0000.11,-000.01,-000.08,0000.03,0000.16,24.0,04.1,0671.6,31.0
2020-10-14T02:25:00Z,00000380,00000600,0000.31,0000.16,0000.41,0000.82,-000.01,0000.30,0000.18,0000.01,-000.02,24.0,04.2,0671.6,31.0
2020-10-14T02:26:00Z,00000380,00000600,0000.62,0000.30,-000.19,0000.69,-000.01,-000.30,0000.07,0000.17,0000.03,24.0,04.2,0671.6,31.0
2020-10-14T02:27:00Z,00000380,00000600,-000.44,0000.28,0000.32,-000.13,-000.07,0000.13,-000.00,-000.00,0000.17,23.9,04.3,0671.6,31.0
2020-10-14T02:28:00Z,00000380,00000600,-000.09,0000.25,0000.04,0000.48,-000.05,-000.49,-000.05,-000.07,-000.03,23.9,04.2,0671.6,31.0
2020-10-14T02:29:00Z,00000380,00000600,-000.43,-000.11,0000.21,-000.50,-000.14,-000.12,-000.05,-000.07,-000.04,23.9,04.2,0671.6,31.0
2020-10-14T02:30:00Z,00000380,00000600,0000.32,-000.47,0000.44,0000.18,-000.18,0000.25,-000.02,0000.11,-000.10,23.9,04.3,0671.6,31.0
2020-10-14T02:31:00Z,00000380,00000600,0000.47,0000.02,-000.19,-000.38,0000.11,0000.08,0000.13,-000.01,0000.11,23.9,04.3,0671.6,31.0
2020-10-14T02:32:00Z,00000380,00000600,0000.71,-000.39,-000.31,0000.92,-000.25,0000.03,-000.09,-000.10,-000.10,23.9,04.2,0671.6,31.0
2020-10-14T02:33:00Z,00000380,00000600,0000.66,0000.15,-000.28,0000.23,-000.08,-000.13,-000.05,0000.11,0000.04,23.9,04.2,0671.5,31.0
2020-10-14T02:34:00Z,00000380,00000600,-000.59,-000.04,0000.21,-000.32,0000.08,0000.19,0000.13,-000.00,0000.14,23.9,04.2,0671.5,31.0
2020-10-14T02:35:00Z,00000380,00000600,-000.69,-000.33,0000.06,0000.20,-000.37,0000.12,0000.02,0000.06,-000.17,23.9,04.2,0671.5,31.0
2020-10-14T02:36:00Z,00000380,00000600,0000.73,-000.29,0000.13,0000.80,-000.17,-000.12,-000.06,-000.03,0000.11,23.9,04.3,0671.6,31.0
2020-10-14T02:37:00Z,00000380,00000600,-000.53,0000.33,-000.15,0000.33,0000.37,-000.26,-000.10,-000.06,-000.03,23.9,04.2,0671.5,31.0
2020-10-14T02:38:00Z,00000380,00000600,0000.61,0000.01,0000.19,0001.38,-000.09,-000.10,0000.13,0000.09,0000.00,23.9,04.2,0671.5,31.0
2020-10-14T02:39:00Z,00000380,00000600,-000.26,-000.03,-000.08,0000.77,0000.03,0000.52,0000.01,-000.06,-000.03,23.9,04.2,0671.6,31.0
2020-10-14T02:40:00Z,00000380,00000600,0001.10,-000.07,0000.12,-000.60,-000.28,-000.08,-000.01,-000.07,0000.01,23.9,04.2,0671.6,31.0
2020-10-14T02:41:00Z,00000380,00000600,0000.06,-000.12,0000.37,0000.51,0000.33,0000.13,-000.04,0000.03,-000.12,23.9,04.1,0671.6,31.0
2020-10-14T02:42:00Z,00000380,00000600,0001.13,-000.16,0000.00,0000.38,0000.01,-000.08,-000.13,-000.03,0000.01,23.9,04.1,0671.6,31.0
2020-10-14T02:43:00Z,00000380,00000600,0000.00,0000.33,-000.07,0000.65,-000.11,-000.14,-000.03,-000.01,0000.04,23.9,04.0,0671.6,31.0
2020-10-14T02:44:00Z,00000380,00000600,-000.36,0000.53,0000.12,0000.01,0000.13,-000.18,0000.06,-000.01,-000.06,23.9,04.0,0671.6,31.0
2020-10-14T02:45:00Z,00000380,00000600,0000.12,-000.02,-000.23,0000.78,-000.23,0000.21,0000.05,0000.01,0000.17,23.8,03.9,0671.6,31.0
2020-10-14T02:46:00Z,00000380,00000600,0000.53,-000.17,0000.17,0000.23,0000.26,0000.31,-000.09,0000.03,-000.14,23.8,04.0,0671.6,31.0
2020-10-14T02:47:00Z,00000380,00000600,-001.25,-000.81,0000.10,0000.04,0000.11,-000.17,0000.08,0000.05,-000.01,23.8,03.9,0671.6,31.0
2020-10-14T02:48:00Z,00000380,00000600,0000.31,-000.05,0000.31,0000.46,-000.28,-000.05,0000.11,-000.16,0000.03,23.9,03.9,0671.7,31.0
2020-10-14T02:49:00Z,00000380,00000600,-000.25,0000.07,0000.15,0000.46,-000.04,0000.09,-000.12,0000.19,0000.05,23.9,03.8,0671.7,31.0
2020-10-14T02:50:00Z,00000380,00000600,0000.46,0000.48,0000.35,-000.10,0000.02,0000.03,-000.07,-000.22,-000.12,23.9,03.7,0671.7,31.0
2020-10-14T02:51:00Z,00000380,00000600,-000.70,0000.16,-000.31,0001.01,0000.05,-000.22,0000.02,0000.10,-000.07,23.9,03.7,0671.7,31.0
2020-10-14T02:52:00Z,00000380,00000600,-001.27,-000.09,0000.08,0001.52,0000.05,-000.02,0000.03,-000.03,0000.17,24.0,03.7,0671.7,31.0
2020-10-14T02:53:00Z,00000380,00000600,0000.11,-000.06,-000.17,-000.43,-000.26,0000.18,-000.07,0000.03,-000.10,24.0,03.6,0671.7,31.0
2020-10-14T02:54:00Z,00000380,00000600,0000.15,-000.24,-000.27,-000.35,0000.03,-000.04,0000.05,0000.00,0000.02,24.0,03.6,0671.7,31.0
2020-10-14T02:55:00Z,00000380,00000600,-000.41,0000.01,0000.30,0000.35,-000.13,0000.09,-000.07,-000.06,-000.02,23.9,03.6,0671.7,31.0
2020-10-14T02:56:00Z,00000380,00000600,0001.13,0000.23,0000.87,0000.71,-000.16,-000.04,0000.06,-000.07,0000.08,23.9,03.5,0671.7,31.0
2020-10-14T02:57:00Z,00000380,40000600,,,,,,,,,,24.0,03.3,0671.6,31.0
2020-10-14T02:58:00Z,00000380,60000600,,,,,,,,,,24.1,03.7,0670.8,31.0
2020-10-14T02:59:00Z,00000380,20000600,,,,,,,,,,24.2,03.5,0670.8,31.0
2020-10-14T03:00:00Z,00000380,20000600,,,,,,,,,,24.2,03.4,0670.8,31.0
2020-10-14T03:01:00Z,00000380,20000600,,,,,,,,,,24.2,03.3,0670.8,31.0
2020-10-14T03:02:00Z,00000380,20000600,,,,,,,,,,24.2,03.3,0670.8,31.0
2020-10-14T03:03:00Z,00000380,60000600,,,,,,,,,,24.2,03.3,0670.8,31.0
2020-10-14T03:04:00Z,00000380,40000600,0001.15,0000.35,0000.37,0000.76,-000.14,0000.30,-000.00,0000.06,-000.07,24.0,03.4,0671.7,31.0
2020-10-14T03:05:00Z,00000380,00000600,0000.22,0000.18,-000.03,-000.24,0000.40,-000.07,-000.13,-000.08,0000.04,24.0,03.4,0671.7,31.0
2020-10-14T03:06:00Z,00000380,00000600,0000.68,0000.21,0000.22,0000.30,-000.37,-000.02,0000.05,0000.10,0000.09,23.9,03.5,0671.7,31.0
2020-10-14T03:07:00Z,00000380,00000600,0000.73,0000.24,-000.13,0000.31,0000.04,-000.09,-000.00,-000.03,0000.02,23.9,03.5,0671.7,31.0
2020-10-14T03:08:00Z,00000380,00000600,0000.42,0000.75,-000.03,0000.21,0000.31,-000.02,0000.10,-000.04,0000.02,23.9,03.5,0671.7,31.0
2020-10-14T03:09:00Z,00000380,00000600,-000.16,-000.14,-000.07,-000.32,-000.09,-000.07,-000.06,0000.04,-000.02,23.9,03.5,0671.7,31.0
2020-10-14T03:10:00Z,00000380,00000600,0000.77,-000.19,0000.02,-000.32,0000.83,-000.42,-000.05,0000.01,-000.14,23.9,03.6,0671.8,31.0